[[{"header":{"parameterUnit":"m.s-1","parameterCategory":1,"la1":30.2991,"la2":30.254,"lo1":-89.0895,"lo2":-89.0444,"dy":0.0017,"dx":0.0017,"nx":28,"ny":28,"refTime":"2024-02-28T03:00:00:Z","depth":0,"parameterNumber":2,"parameterNumberName":"U-component_of_WINDS"},"data":[0,0,0,0,0,0,0,0,0,0,0,0,0,0,0,0,0,0,0,0,0,0,0,0,0,0,0,0,0,0,0,0,0,0,0,0,0,0,0,0,0,0,0,0,0,0,0,0,0,0,0,0,0,0,0,0,0,0,1.0814,1.0814,0,1.083,1.083,1.083,1.0808,1.0807,1.0806,1.0805,1.0823,1.0824,1.0825,0,0,0,0,0,0,0,0,0,0,0,0,0,1.0765,1.0766,1.0814,1.0814,1.0814,1.083,1.083,1.083,1.0808,1.0807,1.0806,1.0805,1.0823,1.0824,1.0825,0,0,0,0,0,0,0,0,0,0,0,0,0,1.0784,1.0767,1.0814,1.0805,1.0804,1.083,1.083,1.083,1.0808,1.0807,1.0805,1.0804,1.0822,1.0824,1.0826,1.0861,0,0,1.0831,1.0832,0,0,0,0,0,0,0,0,1.0783,1.0786,1.0806,1.0805,1.0805,1.0815,1.0819,1.0841,1.0808,1.0807,1.0805,1.0804,1.0822,1.0823,1.0829,1.0862,1.0863,1.0831,1.0833,1.0833,1.0834,0,0,0,0,0,0,0,1.0782,1.0785,1.082,1.0806,1.0806,1.08,1.0802,1.0823,1.0821,1.0807,1.0805,1.0807,1.0821,1.0827,1.0829,1.0863,1.0831,1.0833,1.0834,1.0835,1.0926,1.0927,0,0,0,0,0,0,1.0781,1.0784,1.082,1.0821,1.0791,1.0802,1.0804,1.0813,1.082,1.082,1.0808,1.0806,1.0825,1.0827,1.083,1.0872,1.0833,1.0835,1.0836,1.0925,1.0926,1.0928,0,0,0,0,0,0,1.0781,1.0785,1.0819,1.0802,1.0806,1.0804,1.0815,1.0814,1.082,1.0821,1.0821,1.0815,1.0824,1.0827,1.0853,1.0872,1.0836,1.0837,1.0923,1.0925,1.0927,1.0957,0,0,0,0,0,0,1.0779,1.0785,1.0798,1.0802,1.0807,1.0842,1.0816,1.0815,1.0824,1.0821,1.0828,1.0828,1.0823,1.0851,1.0855,1.0874,1.0839,1.0921,1.0924,1.0926,1.0954,1.096,1.0964,0,0,0,0,0,1.0778,1.0806,1.0799,1.0803,1.0823,1.0843,1.0846,1.084,1.0825,1.0839,1.0839,1.0828,1.0869,1.0854,1.0858,1.0878,1.092,1.0923,1.0926,1.0952,1.0959,1.0964,0,0,0,0,0,0,1.0804,1.0806,1.0798,1.0829,1.0836,1.0839,1.0856,1.0847,1.0859,1.0856,1.0848,1.085,1.0878,1.088,1.0863,1.0913,1.0892,1.0897,1.091,1.0917,1.0922,1.0921,1.084,0,0,0,0,0,1.0813,1.0829,1.083,1.0857,1.0861,1.0858,1.0866,1.0861,1.0868,1.0871,1.0874,1.0882,1.0897,1.0907,1.092,1.0954,1.0956,1.097,1.0975,1.0979,1.0983,1.1002,1.1008,1.0938,1.0937,1.0937,0,0,1.0833,1.0836,1.0846,1.0862,1.0867,1.0884,1.0861,1.0879,1.0892,1.0874,1.0899,1.0901,1.091,1.094,1.0953,1.0943,1.1003,1.0983,1.0986,1.0988,1.1005,1.1012,1.1018,1.094,1.0939,1.0939,0,0,1.0877,1.0881,1.0904,1.0909,1.0916,1.0914,1.092,1.0925,1.0925,1.095,1.0937,1.0952,1.0978,1.0984,1.0991,1.1038,1.1027,1.1042,1.1069,1.1087,1.1093,1.1098,1.1115,1.1121,1.1046,1.1046,1.1046,0,1.09,1.0925,1.0917,1.0936,1.0944,1.0928,1.0952,1.0957,1.0969,1.0975,1.0963,1.0995,1.0999,1.1031,1.1043,1.1048,1.1055,1.1042,1.1092,1.1097,1.1102,1.1118,1.1124,1.1048,1.1048,1.1047,1.1047,0,1.0953,1.0971,1.0988,1.1,1.1009,1.1031,1.1026,1.1037,1.1031,1.103,1.1056,1.106,1.1075,1.1082,1.1076,1.1113,1.1106,1.1093,1.1073,1.111,1.1126,1.1132,1.105,1.105,1.1049,1.1049,0,0,1.1015,1.1022,1.1029,1.1034,1.1041,1.1054,1.1075,1.1089,1.1098,1.1107,1.1125,1.1147,1.1135,1.1142,1.1137,1.1153,1.119,1.1138,1.1138,1.1148,1.1232,1.1242,1.1249,1.1183,1.1184,1.1185,1.1231,0,1.106,1.1096,1.1089,1.1124,1.114,1.1125,1.1143,1.115,1.115,1.1164,1.1163,1.1179,1.1162,1.1167,1.1182,1.1182,1.1207,1.1179,1.12,1.1201,1.1199,1.1257,1.1268,1.1311,1.1237,1.1238,1.1239,0,1.1117,1.1127,1.1164,1.1169,1.1175,1.1192,1.1204,1.1217,1.1224,1.1223,1.1231,1.1223,1.1244,1.1223,1.1252,1.1233,1.1241,1.1243,1.1244,1.1247,1.1223,1.1262,1.1325,1.1332,1.1248,1.1247,1.1247,0,1.1159,1.1182,1.1207,1.1212,1.1218,1.123,1.1233,1.1239,1.1248,1.1259,1.1264,1.1278,1.1285,1.1296,1.1291,1.1276,1.1322,1.1299,1.1322,1.1322,1.1333,1.1332,1.1399,1.1337,1.1337,1.1337,1.1336,0,1.121,1.1233,1.1226,1.1242,1.1267,1.126,1.1285,1.1287,1.1292,1.1308,1.1296,1.1311,1.1303,1.1318,1.1315,1.134,1.1343,1.1343,1.1342,1.1345,1.1345,1.1351,1.1348,1.1338,1.1338,1.1338,1.1337,0,1.1261,1.1258,1.1284,1.1288,1.1289,1.1308,1.1311,1.1326,1.1324,1.1345,1.1349,1.1347,1.1364,1.136,1.1378,1.1376,1.1408,1.1403,1.1406,1.1405,1.1427,1.1426,1.1501,1.151,1.1441,1.1442,1.1443,0,1.1294,1.1312,1.1317,1.1327,1.1331,1.1346,1.1355,1.1348,1.1358,1.1368,1.1381,1.1397,1.1409,1.1436,1.1437,1.1451,1.1447,1.1472,1.1449,1.1451,1.1448,1.1447,1.1449,1.1477,1.1478,1.1478,1.1479,0,1.1354,1.1351,1.1364,1.1377,1.1388,1.1397,1.1406,1.1415,1.1408,1.142,1.1437,1.1446,1.1465,1.1481,1.1494,1.1497,1.1487,1.1486,1.1492,1.1495,1.1496,1.1497,1.1419,1.1484,1.1484,1.1483,1.1483,1.1483,1.1397,1.1412,1.1419,1.1434,1.1439,1.1448,1.1462,1.1462,1.1476,1.1491,1.1485,1.1505,1.1512,1.1528,1.1533,1.1548,1.1539,1.1548,1.155,1.1552,1.1555,1.1493,1.1551,1.1551,1.155,1.155,1.155,0,1.1457,1.146,1.1474,1.1486,1.1498,1.1487,1.1496,1.1507,1.1524,1.1531,1.1543,1.1563,1.1578,1.158,1.1594,1.1606,1.1602,1.161,1.161,1.1611,1.1563,1.1556,1.1613,1.1613,1.1613,1.1613,1.1613,1.1613,1.1489,1.1514,1.1512,1.154,1.1543,1.1561,1.1568,1.1575,1.1581,1.1603,1.1616,1.1617,1.1622,1.1637,1.165,1.165,1.1656,1.1667,1.1665,1.162,1.1614,1.1608,1.1602,1.1668,1.1668,1.1712,1.1712,1.1713]},{"header":{"parameterUnit":"m.s-1","parameterCategory":1,"la1":30.2991,"la2":30.254,"lo1":-89.0895,"lo2":-89.0444,"dy":0.0017,"dx":0.0017,"nx":28,"ny":28,"refTime":"2024-02-28T03:00:00:Z","depth":0,"parameterNumber":3,"parameterNumberName":"V-component_of_WINDS"},"data":[0,0,0,0,0,0,0,0,0,0,0,0,0,0,0,0,0,0,0,0,0,0,0,0,0,0,0,0,0,0,0,0,0,0,0,0,0,0,0,0,0,0,0,0,0,0,0,0,0,0,0,0,0,0,0,0,0,0,4.7827,4.7828,0,4.7881,4.7882,4.7882,4.787,4.7869,4.7868,4.7867,4.7917,4.7919,4.7921,0,0,0,0,0,0,0,0,0,0,0,0,0,4.771,4.7712,4.7827,4.7828,4.7829,4.7881,4.7882,4.7882,4.787,4.7869,4.7868,4.7867,4.7916,4.7919,4.7922,0,0,0,0,0,0,0,0,0,0,0,0,0,4.7762,4.7713,4.7827,4.7829,4.783,4.7881,4.7882,4.7883,4.7871,4.7869,4.7867,4.7866,4.7915,4.7919,4.7922,4.7973,0,0,4.7932,4.7934,0,0,0,0,0,0,0,0,4.7759,4.7766,4.7828,4.7829,4.783,4.7867,4.7859,4.7913,4.7871,4.7855,4.7867,4.7865,4.7901,4.7906,4.7919,4.7975,4.7977,4.7933,4.7935,4.7936,4.7937,0,0,0,0,0,0,0,4.7755,4.7764,4.7848,4.7829,4.783,4.7826,4.7831,4.7869,4.7886,4.7856,4.7855,4.7862,4.7901,4.7916,4.792,4.7978,4.7933,4.7936,4.7938,4.7939,4.8081,4.8083,0,0,0,0,0,0,4.7752,4.7761,4.7847,4.785,4.779,4.7829,4.7835,4.7857,4.7885,4.7888,4.7863,4.7861,4.7911,4.7916,4.7922,4.7986,4.7936,4.7939,4.7941,4.8079,4.8081,4.8083,0,0,0,0,0,0,4.7749,4.7759,4.7844,4.7805,4.7816,4.7833,4.7857,4.7859,4.7873,4.7891,4.7893,4.7875,4.791,4.7917,4.7961,4.7987,4.7941,4.7944,4.8077,4.808,4.8082,4.8112,0,0,0,0,0,0,4.7746,4.7759,4.7779,4.7806,4.7818,4.7884,4.7858,4.7861,4.788,4.7877,4.7903,4.7905,4.7909,4.7956,4.7965,4.7991,4.7947,4.8075,4.8078,4.8082,4.8109,4.8115,4.8121,0,0,0,0,0,4.7742,4.7783,4.778,4.7791,4.7844,4.7886,4.7893,4.7898,4.7882,4.7902,4.7914,4.7905,4.7982,4.7961,4.797,4.7998,4.8073,4.8077,4.8081,4.8106,4.8114,4.8121,0,0,0,0,0,0,4.7757,4.7787,4.7784,4.7836,4.7859,4.7884,4.791,4.7906,4.7932,4.7929,4.7932,4.7938,4.7984,4.7994,4.797,4.805,4.8025,4.8031,4.8041,4.8049,4.8055,4.8052,4.7949,0,0,0,0,0,4.7767,4.78,4.7823,4.7867,4.7879,4.7892,4.7911,4.7913,4.7936,4.7945,4.796,4.7981,4.8011,4.803,4.8058,4.811,4.8116,4.8133,4.8139,4.8144,4.815,4.818,4.8189,4.8096,4.8096,4.8096,0,0,4.7786,4.7807,4.7827,4.7871,4.7889,4.7922,4.79,4.7936,4.7961,4.795,4.7994,4.8005,4.8029,4.8078,4.8101,4.8089,4.8177,4.8149,4.8153,4.8156,4.8185,4.8194,4.8202,4.8099,4.8098,4.8098,0,0,4.784,4.7859,4.7899,4.7918,4.7946,4.7955,4.7965,4.7991,4.7999,4.8044,4.8037,4.8065,4.8115,4.8134,4.8149,4.8212,4.8205,4.822,4.8253,4.8282,4.8289,4.8296,4.832,4.8329,4.8226,4.8226,4.8226,0,4.7861,4.7913,4.7919,4.7956,4.7976,4.797,4.801,4.8027,4.8063,4.8076,4.8062,4.8127,4.8143,4.8197,4.8213,4.8225,4.8236,4.8218,4.8288,4.8295,4.8301,4.8324,4.8333,4.8228,4.8227,4.8227,4.8227,0,4.7938,4.7974,4.8002,4.804,4.8062,4.81,4.8111,4.8133,4.8133,4.8144,4.8189,4.8208,4.8241,4.8253,4.8252,4.8308,4.83,4.8287,4.8264,4.8312,4.8334,4.8342,4.823,4.823,4.8229,4.8229,0,0,4.8003,4.8045,4.8056,4.8074,4.8105,4.8132,4.817,4.8204,4.8224,4.8248,4.828,4.8324,4.8313,4.8331,4.8332,4.8358,4.8409,4.8342,4.8343,4.8356,4.8473,4.8485,4.8495,4.8404,4.8406,4.8407,4.8472,0,4.8062,4.8132,4.8139,4.8201,4.8235,4.823,4.8263,4.8285,4.8296,4.8325,4.8335,4.8367,4.8349,4.8361,4.8385,4.8398,4.8433,4.8392,4.8434,4.8436,4.8431,4.8506,4.8517,4.8578,4.8481,4.8482,4.8483,0,4.814,4.817,4.8236,4.8265,4.828,4.831,4.8343,4.8371,4.8396,4.8401,4.8423,4.8421,4.846,4.8433,4.8487,4.8459,4.8476,4.8485,4.8487,4.8493,4.8464,4.8516,4.8598,4.8608,4.8496,4.8495,4.8494,0,4.8184,4.824,4.8288,4.8303,4.8337,4.8359,4.8374,4.8398,4.8419,4.8446,4.846,4.8491,4.8508,4.8532,4.8539,4.8518,4.8593,4.8566,4.8599,4.8599,4.8616,4.8616,4.8704,4.8624,4.8624,4.8623,4.8623,0,4.825,4.8291,4.8309,4.8338,4.8384,4.8391,4.8436,4.845,4.8471,4.8503,4.8498,4.8528,4.8534,4.8564,4.8569,4.8614,4.862,4.8626,4.8628,4.8628,4.8628,4.8641,4.8638,4.8626,4.8625,4.8625,4.8624,0,4.8307,4.8321,4.8373,4.8402,4.8411,4.8444,4.8468,4.8496,4.8506,4.8546,4.8556,4.8571,4.8607,4.8615,4.8656,4.866,4.8714,4.8709,4.8706,4.8707,4.874,4.8738,4.8842,4.8857,4.8764,4.8765,4.8766,0,4.835,4.8382,4.8416,4.8438,4.8455,4.849,4.8512,4.8519,4.8542,4.8575,4.8599,4.8635,4.8664,4.8721,4.8735,4.8767,4.8765,4.8799,4.8769,4.877,4.8768,4.8767,4.8771,4.8805,4.8806,4.8807,4.8808,0,4.8425,4.843,4.8463,4.85,4.8527,4.8555,4.8582,4.8599,4.8611,4.8636,4.8674,4.8697,4.8741,4.8777,4.8809,4.8823,4.8818,4.8817,4.8827,4.8829,4.8827,4.8831,4.8724,4.8815,4.8814,4.8813,4.8813,4.8813,4.8478,4.8507,4.8536,4.8574,4.8595,4.8621,4.865,4.8665,4.8697,4.8736,4.8737,4.8779,4.8804,4.8848,4.8863,4.8895,4.8885,4.8898,4.8902,4.8906,4.891,4.882,4.8901,4.89,4.89,4.89,4.89,0,4.8554,4.8573,4.8608,4.8647,4.8677,4.8671,4.87,4.8725,4.8763,4.8787,4.8817,4.8861,4.8896,4.8914,4.8948,4.897,4.8969,4.8979,4.8979,4.8983,4.8916,4.8906,4.898,4.898,4.898,4.898,4.898,4.898,4.8598,4.8648,4.8658,4.8719,4.8737,4.878,4.8797,4.8821,4.8841,4.8892,4.8922,4.8933,4.8956,4.8992,4.9024,4.9028,4.9041,4.9054,4.9057,4.8995,4.8987,4.8979,4.8969,4.9056,4.9056,4.9121,4.9122,4.9122]}]]